Погода в Акароа

Новая Зеландия     43°48′17″S   172°58′02″E
темп.,
°C
ветер,
м/с
пор.,
м/с
влажн.,
%
обл.,
%
осадки,
мм/ч
давл.,
гПа
погр.,
м
12 августа, пт
пт1200:00+3юз118780 0.2 102569
03:00+1зсз00936 0.0 102555
06:00+1з00945 0.0 102537
09:00+4с12885 0.0 1025136
12:00+7с12644 0.0 1024786
15:00+7в116414 0.0 1022780
18:00+2ююз11933 0.0 102344
21:00+1юз228718 0.0 102552
13 августа, сб
сб1300:00+2зюз228489 0.0 102557
03:00+2з228419 0.0 102451
06:00+1зюз22845 0.0 102545
09:00+4з23755 0.0 102680
12:00+9з2454100 0.0 10251014
15:00+9зюз26575 0.0 10241029
18:00+4юз11832 0.0 102623
21:00+3зюз11800 0.0 102616
14 августа, вс
вс1400:00+3з11770 0.0 102617
03:00+3сз11770 0.0 102619
06:00+3ссз11820 0.0 102532
09:00+6ссв12690 0.0 102573
12:00+10ссв1250100 0.0 1023380
15:00+11в115315 0.0 1021495
18:00+5ююз229074 0.0 102332
21:00+3юз1283100 0.0 102432
15 августа, пн
пн1500:00+4ссз118278 0.0 102529
03:00+3с119450 0.0 102537
06:00+4ссв1196100 0.0 102551
09:00+6ссв1495100 0.0 1025220
12:00+8ссв3676100 0.0 1024729
15:00+9св3682100 0.0 1022718
18:00+6св2398100 0.1 102174
21:00+6с2497100 0.0 102095
16 августа, вт
вт1600:00+6с2695100 0.0 1018152
03:00+6ссв2590100 0.0 1016119
06:00+7с1186100 0.0 101429
09:00+9с31285100 0.0 1013307
12:00+14с297177 0.0 1013382
15:00+15с25665 0.0 1010408
18:00+10сз1183100 0.0 101117
21:00+10зсз1166100 0.0 101311